Find Local Weather

World > North America > United States > Illinois

Stonefort, Illinois Regional Weather

Lat: 37.62N, Lon: 88.71W
Wx Zone: ILZ086
Feedback
Expires:201804230100;;353385
ASUS43 KLOT 230008
RWRIL 

ILLINOIS REGIONAL WEATHER ROUNDUP
NATIONAL WEATHER SERVICE CHICAGO/ROMEOVILLE IL
700 PM CDT SUN APR 22 2018

NOTE: "FAIR" INDICATES FEW OR NO CLOUDS BELOW 12,000 FEET WITH NO
SIGNIFICANT WEATHER AND/OR OBSTRUCTIONS TO VISIBILITY.

* THESE STATIONS ARE NOT UNDER NWS QUALITY CONTROL. THEY ALSO MAY NOT
  REPORT WEATHER SUCH AS PRECIPITATION OR FOG.


ILZ064>066-069>071-074>076-080>082-084>086-088>090-092>094-230100-
SOUTH-CENTRAL ILLINOIS
  
CITY           SKY/WX    TMP DP  RH WIND       PRES   REMARKS
CARBONDALE     LGT RAIN  58  56  93 E13       29.99S                  
6HR MIN TEMP:  54; 6HR MAX TEMP:  58; 6HR PCP:  0.15;                

CAIRO*         RAIN      58  57  97 E10       29.95S                  
EFFINGHAM*     LGT RAIN  64  40  40 NE13G18   30.09S                  
MARION         LGT RAIN  57  57 100 E12       30.00F                  
MT. VERNON     LGT RAIN  59  55  87 E8        30.05R                  
CENTRALIA*     DRIZZLE   61  53  76 E9        30.04S                  
SALEM*         LGT RAIN  64  49  58 E7        30.05S                  
METROPOLIS*    RAIN      59  57  95 E10       29.98S                  
$$


SKY/WX - Weather  TMP - Temperature  DP - Dewpoint  RH - Relative Humidity
WIND - Wind Direction/Speed PRES - Barometric Pressure